Location: Newark
(63.1158°N, 8.1461°E)
Time: 05:48:43
(UTC+00:00)

Envisat - Pass Details

Date: 16 December 2019
Orbit: 764 x 766 km, 98.1° (Epoch: 24 January)

Event Time Altitude Azimuth Distance (km) Brightness Sun altitude
Rises 17:17:31 0° 173° (S) 3,229 6.3 -20.1°
Reaches altitude 10° 17:19:52 10° 177° (S) 2,307 5.6 -20.3°
Maximum altitude 17:24:53 59° 257° (WSW) 888 3.6 -20.9°
Drops below altitude 10° 17:29:57 10° 338° (NNW) 2,321 5.6 -21.4°
Sets 17:32:18 0° 342° (NNW) 3,251 6.4 -21.7°
